Location: Hokitika
(42.7170°S, 170.9670°E)
Time: 01:44:48
(UTC+13:00)

Resurs 01 Rocket - Pass Details

Date: 24 January 2019
Orbit: 635 x 643 km, 98.0° (Epoch: 13 October)

Event Time Altitude Azimuth Distance (km) Brightness Sun altitude
Rises 21:35:32 0° 149° (SSE) 2,977 5.1 -5.2°
Reaches altitude 10° 21:38:33 10° 128° (SE) 2,055 4.0 -5.6°
Maximum altitude 21:41:22 16° 89° (E) 1,661 3.3 -6.1°
Drops below altitude 10° 21:44:10 10° 49° (NE) 2,035 3.5 -6.5°
Enters shadow 21:45:00 - 41° (NE) 2,259 3.8 -6.6°
